TimeMST,TemperatureF,Dew PointF,Humidity,Sea Level PressureIn,VisibilityMPH,Wind Direction,Wind SpeedMPH,Gust SpeedMPH,PrecipitationIn,Events,Conditions,WindDirDegrees,DateUTC
12:55 AM,39.9,31.5,72,29.82,10.0,Calm,Calm,-,N/A,,Overcast,0,2012-11-08 07:55:00
1:55 AM,39.4,32.0,75,29.80,10.0,Calm,Calm,-,N/A,,Overcast,0,2012-11-08 08:55:00
2:55 AM,39.6,32.7,76,29.78,10.0,Calm,Calm,-,N/A,,Overcast,0,2012-11-08 09:55:00
3:55 AM,40.3,33.4,77,29.76,10.0,Calm,Calm,-,N/A,,Mostly Cloudy,0,2012-11-08 10:55:00
4:55 AM,40.3,32.9,75,29.72,10.0,ENE,3.5,-,N/A,,Mostly Cloudy,70,2012-11-08 11:55:00
5:55 AM,39.0,34.5,84,29.71,10.0,ESE,6.9,-,N/A,,Overcast,110,2012-11-08 12:55:00
6:55 AM,40.5,35.4,82,29.70,10.0,East,3.5,-,N/A,,Mostly Cloudy,100,2012-11-08 13:55:00
7:55 AM,39.9,36.9,89,29.68,10.0,ESE,6.9,-,N/A,,Scattered Clouds,110,2012-11-08 14:55:00
8:55 AM,40.5,37.0,88,29.67,10.0,East,8.1,-,N/A,,Scattered Clouds,90,2012-11-08 15:55:00
9:55 AM,45.1,37.2,74,29.65,10.0,East,5.8,-,N/A,,Clear,100,2012-11-08 16:55:00
10:55 AM,48.7,38.7,68,29.64,10.0,ESE,9.2,-,N/A,,Partly Cloudy,110,2012-11-08 17:55:00
11:55 AM,50.7,37.8,61,29.61,10.0,Calm,Calm,-,N/A,,Partly Cloudy,0,2012-11-08 18:55:00
12:55 PM,55.6,37.4,50,29.56,10.0,Calm,Calm,-,N/A,,Scattered Clouds,0,2012-11-08 19:55:00
1:55 PM,52.2,34.7,51,29.57,10.0,NW,17.3,-,N/A,,Overcast,310,2012-11-08 20:55:00
2:03 PM,50.0,33.8,54,29.56,9.0,NNW,19.6,-,N/A,Rain,Light Rain Showers,330,2012-11-08 21:03:00
2:23 PM,48.2,37.4,66,29.57,9.0,NNW,25.3,-,N/A,Rain,Light Rain,340,2012-11-08 21:23:00
2:55 PM,46.4,42.8,87,29.57,10.0,NNE,12.7,-,0.00,,Light Drizzle,30,2012-11-08 21:55:00
3:23 PM,46.4,44.6,93,29.57,10.0,SSW,3.5,-,N/A,,Mostly Cloudy,210,2012-11-08 22:23:00
3:55 PM,46.0,41.0,83,29.60,10.0,WNW,15.0,-,0.00,,Mostly Cloudy,290,2012-11-08 22:55:00
4:55 PM,45.9,37.9,74,29.58,10.0,NNW,20.7,-,N/A,,Scattered Clouds,340,2012-11-08 23:55:00
5:55 PM,43.5,39.0,84,29.62,10.0,NW,15.0,-,N/A,,Scattered Clouds,320,2012-11-09 00:55:00
6:55 PM,42.3,39.0,88,29.64,10.0,WNW,10.4,-,N/A,,Mostly Cloudy,290,2012-11-09 01:55:00
7:37 PM,42.8,35.6,76,29.65,10.0,WNW,10.4,-,N/A,,Scattered Clouds,300,2012-11-09 02:37:00
7:55 PM,41.2,34.3,77,29.64,10.0,NW,11.5,-,N/A,,Partly Cloudy,310,2012-11-09 02:55:00
8:55 PM,38.3,36.7,94,29.65,10.0,West,11.5,-,N/A,,Scattered Clouds,280,2012-11-09 03:55:00
9:55 PM,37.0,36.9,99,29.67,10.0,West,3.5,-,N/A,,Mostly Cloudy,260,2012-11-09 04:55:00
10:41 PM,35.6,35.6,100,29.67,10.0,West,9.2,-,N/A,,Scattered Clouds,280,2012-11-09 05:41:00
10:55 PM,34.0,34.0,100,29.68,10.0,WNW,8.1,-,N/A,,Partly Cloudy,290,2012-11-09 05:55:00
11:55 PM,30.9,30.9,100,29.67,10.0,WNW,8.1,-,N/A,,Scattered Clouds,290,2012-11-09 06:55:00